Other Public Products
Issued by NWS Charleston, SC

Current Version | Previous Version | Graphics & Text | Print | Product List | Glossary On
Versions: 1 2 3 4 5 6 7 8 9 10 11 12 13 14 15 16 17 18 19 20 21 22 23 24 25 26 27 28 29 30 31 32 33 34 35 36 37 38 39 40 41 42 43 44 45 46 47 48 49 50
000 FPUS82 KCHS 230727 OPUCHS TEST...KCHS/KSAV Gateway Observations...TEST National Weather Service Charleston SC 200 AM EST THU NOV 23 2017 NOTE: "fair" indicates few or no clouds below 12,000 feet with no significant weather and/or obstructions to visibility. SCZ050-WAZ558-NCZ071-TXZ119-213-PAZ071-DCZ001-FLZ074-172-MI076- NYZ176-178-MAZ016-IL014-TNZ027-NJZ106-GAZ044-MD014-230800- ...Gateway Observations for Charleston International... CITY SKY/WX TMP DP RH WIND PRES REMARKS Chas Airport PTCLDY 52 42 69 N7 30.06F Seattle RAIN 60 58 92 SW16 29.85S FOG Charlotte MOCLDY 42 28 57 NE6 30.14F Dallas DFW CLOUDY 43 26 51 CALM 30.23F Dallas Love CLEAR 40 33 76 CALM 30.25F Philladelphia CLEAR 35 21 56 NW6 30.13S WCI 30 Wash National PTCLDY 36 24 62 NW7 30.19R WCI 30 Baltimore CLEAR 31 23 72 W3 30.16S Miami PTCLDY 72 69 90 CALM 29.92F Detroit CLOUDY 27 21 78 S7 30.19F WCI 19 Newark CLEAR 33 19 56 W10 30.11R WCI 25 Laguardia CLEAR 36 21 54 NW12G21 30.09R WCI 28 J F K CLEAR 33 20 58 NW15 30.10R WCI 23 Boston Logan CLEAR 36 22 56 NW15G24 29.97R WCI 27 Ft. Lauderdale MOCLDY 74 73 97 CALM 29.90F Chicago O`Hare CLOUDY 33 18 53 SW8 30.15F WCI 26 Chicago Midway CLOUDY 33 19 56 SW9 30.16F WCI 25 Houston Bush CLEAR 48 37 65 N8 30.22F Houston Hobby CLEAR 50 38 63 N9 30.21F Nashville CLEAR 30 23 75 CALM 30.19F Atlanta MOCLDY 42 32 67 NW6 30.08S $$ GAZ044-118-TXZ119-213-NCZ071-DCZ001-MDZ014-506-PAZ021-071-NJZ106- NYZ176-178-MAZ106-OHZ011-021-055-MIZ076-KYZ091-ILZ014-INZ047- MNZ060-ONZ431-230800- ...Gateway Observations for Savannah International... CITY SKY/WX TMP DP RH WIND PRES REMARKS Savannah Arpt CLOUDY 57 51 80 NE7 30.04F Atlanta MOCLDY 42 32 67 NW6 30.08S Charlotte MOCLDY 42 28 57 NE6 30.14F Dallas DFW CLOUDY 43 26 51 CALM 30.23F Houston Bush CLEAR 48 37 65 N8 30.22F Wash National PTCLDY 36 24 62 NW7 30.19R WCI 30 Wash Dulles CLEAR 31 23 72 VRB3 30.18R Baltimore CLEAR 31 23 72 W3 30.16S Philadelphia CLEAR 35 21 56 NW6 30.13S WCI 30 Newark CLEAR 33 19 56 W10 30.11R WCI 25 Laguardia CLEAR 36 21 54 NW12G21 30.09R WCI 28 J F K CLEAR 33 20 58 NW15 30.10R WCI 23 Boston CLEAR 36 22 56 NW15G24 29.97R WCI 27 Pittsburg CLOUDY 27 20 75 W3 30.17S Akron CLOUDY 27 17 66 SW3 30.18F Cleveland CLOUDY 27 18 69 SW6 30.22F WCI 20 Cincinnati CLOUDY 27 24 89 CALM 30.20F Columbus CLOUDY 23 20 87 CALM 30.21R Detroit CLOUDY 27 21 78 S7 30.19F WCI 19 Chicago O`Hare CLOUDY 33 18 53 SW8 30.15F WCI 26 Minneapolis CLOUDY 28 18 66 SE5 29.92F WCI 23 Indianapolis CLOUDY 30 22 72 CALM 30.20F Toronto Canada MOCLDY 30 21 69 SW8 30.14F WCI 23 $$

USA.gov is the U.S. government's official web portal to all federal, state and local government web resources and services.